STARLINK-37071

operational
NORAD ID: 70127 Constellation: starlink
LEOCIRCULAR

Über STARLINK-37071

Beschreibung wird geladen...

Live-Position

3D-Globus wird geladen...

Nächste Überflüge

Höhenverlauf

Altitude vs Time

uPlot chart will show altitude changes over time

Zweizeiliger Elementsatz

1 70127C 26050Z 26073.73243056 .00568770 00000+0 74196-3 0 733
2 70127 53.1640 257.6163 0010781 268.4318 224.6079 16.05562112 17
Epoch: 14. März 2026 • Age: 47 hours